Location: B�rgermoos
(47.6500°N, 9.0667°E)
Time: 09:34:49
(UTC+00:00)

A-11 Canister half - Pass Details

Date: 04 August 2021
Orbit: 1526 x 1683 km, 47.3° (Epoch: 20 September)

Event Time Altitude Azimuth Distance (km) Brightness Sun altitude
Rises 11:06:18 0° 247° (WSW) 4,930 11.7 59.1°
Reaches altitude 10° 11:09:28 10° 246° (WSW) 3,943 11.4 59.2°
Maximum altitude 11:19:36 78° 162° (SSE) 1,703 11.0 59.4°
Drops below altitude 10° 11:29:34 10° 79° (E) 3,878 11.2 59.5°
Sets 11:32:40 0° 78° (ENE) 4,846 11.5 59.4°
